FENGYUN 1C DEB, 30572

Orbit data source: Space-Track

FENGYUN 1C DEB, 30572 is space debris in SSO originally from a launch on Mon, 10 May 1999 UTC launched from the Taiyaun Space Center, China (TSC). Fengyun 1C debris stems from the Chinese weather satellite Fengyun-1C, which was intentionally destroyed by a Chinese anti-satellite missile in 2007. This event dramatically increased the amount of space debris, with thousands of trackable fragments posing hazards to satellites and human spaceflight. The Fengyun 1C debris cloud has become a focal point in discussions about space sustainability and the need for international regulations to prevent the creation of new debris.

Loading next visibility...
Identifier
30572, 1999-025ALN
Orbit
SSO
Country
Flag of CNCN / PRC
Related business
Manufacturer
Unknown
Mission
Spacecraft
Bus & Motor
Unknown
Mass
Unknown
Launch date (UTC)
1999-05-10 (27 years ago)
Launch vehicle
Unknown
Launch site
Taiyaun Space Center, China (TSC)
Object type
Payload
Rocket body
Debris
Shape & HBR
Unknown shape, 0.1 m
Radar Cross Section
Medium (>0.1 m² and <1 m²)

Expand to show TLE details & history
Last TLE update: 12 hours ago

TLE from 12 hours ago
0 FENGYUN 1C DEB
1 30572U 99025ALN 26238.34246711  .00000128  00000-0  98450-4 0  9992
2 30572  98.7481 265.7828 0021020 289.0649 137.0819 14.09130812  3716
Epoch: 2026-08-26T08:13Z
TLE epoch observation values (Epoch: 2026-08-26T08:13:09.158Z)
Latitude
64.92277°
Longitude
148.80418°
Altitude
884.673 km
Speed
7.41 km/s
True Right ascension
16h 26m 45s
True Declination
64° 47' 34"
Sunlit
Object was in daylight at epoch
Visualization orbit readout
Latitude
Unknown
Longitude
Unknown
Altitude
Unknown
Speed
Unknown
Apparent Right ascension
Unknown
Apparent Declination
Unknown
Sunlit
N/A
Visualization observer readout
Local Sidereal Time
11:15:37
Azimuth
Unknown
Elevation
Unknown
Doppler factor
Unknown
Orbital elements
Apogee altitude
874.736 km
Perigee altitude
844.309 km
Semi-major axis
7,237.66 km
Eccentricity
0.0021
Inclination
98.7481°
RAAN
265.7828°
Arg. of periapsis
289.0649°
True anomaly
137.24561°
Mean anomaly
137.0819°
Eccentric anomaly
137.16378°
Mean motion
3.52489 °/min
Orbital period
102.13 mins
BSTAR
0.00009845
Loading maneuver chart data...
Computing Atmospheric mass density...

Documentation

Showing up to 5 results
|